TESLA ROADSTER (43205 NORAD) Tracking and Keplerian Element Data

This shows tracking and keplerian element data for the satellite.

Feedback or suggestion? Click here.




ElementValue
Catalog43205
NameTESLA ROADSTER
Epoch Orbit2
Epoch Day38.22157858
Epoch Year2018
RAAN286.7251
Inclination29.0196
Eccentricity0.3400741
Argument of Perigee181.1847
Mean Anonmoly342.1044
Mean Motion8.76378171
Decay Rate0.0051996
L11 43205U 18017A 18038.22157858 .00519960 -52704-6 24662-2 0 9996
L22 43205 29.0196 286.7251 3400741 181.1847 342.1044 8.76378171 21



Live tracking and technical data element details for TESLA ROADSTER (NORAD 43205). TESLA ROADSTER can be tracked NOW for your location showing map with azimuth and elevation plus other details from your city location.







IsCatalogInMostPopularTable: catalog: 43205, numindb: 2269
Update: records affected: 1



GetName: 43205 TESLA ROADSTER

Hit Count: updated at: Wed, 04 Dec 2024 22:30:48 GMT